User: anonymous   Login
Location: Unspecified
(0.0000°N, 0.0000°E)
Time: 12:51:46
(UTC+00:00)
Language:

USA 274 - Orbit

View from above orbital plane
View from above orbital plane
View from above satellite
View from above satellite

Ground track
Ground track

The orbit data is extracted from the following two-line orbital elements,

1 42058U 17011A   17217.11416776 0.00000000  00000-0  00000-0 0    03
2 42058  63.4408 112.9445 0112000 177.6229 182.3771 13.40730891    05
Epoch (UTC): 05 August 2017 02:44:24
Eccentricity: 0.0112000
inclination: 63.4408°
perigee height: 1023 km
apogee height: 1190 km
right ascension of ascending node: 112.9445°
argument of perigee: 177.6229°
revolutions per day: 13.40730891
mean anomaly at epoch: 182.3771°
orbit number at epoch: 0

The dashed part of the orbit path shows where the satellite is in the earth's shadow,  

DLR